Location: Bats
(43.6587°N, 0.4584°W)
Time: 19:27:35
(UTC+00:00)

Cosmos 2297 - Pass Details

Date: 12 January 2026
Orbit: 835 x 857 km, 71.0° (Epoch: 13 February)

Event Time Altitude Azimuth Distance (km) Brightness Sun altitude
Rises 17:27:37 0° 335° (NNW) 3,398 6.9 -7.4°
Reaches altitude 10° 17:30:03 10° 337° (NNW) 2,462 6.2 -7.8°
Maximum altitude 17:35:43 81° 65° (ENE) 856 3.7 -8.8°
Drops below altitude 10° 17:41:23 10° 153° (SSE) 2,460 6.1 -9.7°
Sets 17:43:49 0° 154° (SSE) 3,394 6.8 -10.1°
